Home   Weather   Kokkola   Past weeks

Flag for Finland Past Weather in Kokkola, Finland — Yesterday and Last 2 Weeks

Now
39 °F

Partly sunny.


Feels Like: 36 °F
Forecast: 30 / 41 °F
Wind: 5 mph from East

Location: Kruunupyy

Current Time: Apr 28, 2017 at 9:05:21 pm

Latest Report: Apr 28, 2017 at 8:20 pm


Visibility: N/A

Pressure: 30.30 "Hg

Humidity: 61%

Dew Point: 27 °F

Location of KokkolaLocation

Past Weather in Kokkola — Graph

°F

Kokkola Temperature Yesterday

Maximum temperature yesterday: 34 °F (at 4:20 pm)
Minimum temperature yesterday: 32 °F (at 12:20 am)
Average temperature yesterday: 32 °F

High & Low Weather Summary for the Past Weeks

 TemperatureHumidityPressure
High46 °F (Apr 21, 4:20 pm)100% (Apr 15, 1:50 am)30.45 "Hg (Apr 15, 1:50 am)
Low10 °F (Apr 14, 6:20 am)30% (Apr 18, 1:20 pm)29.09 "Hg (Apr 21, 11:20 pm)
Average31 °F75%29.79 "Hg
* Reported Apr 13 7:20 pm — Apr 28 7:50 pm, Kokkola, Weather by CustomWeather, © 2017

Note: Actual official high and low records may vary slightly from our data, if they occured in-between our weather recording intervals... More about our weather records

Advertising

Kokkola Weather History for the Previous 24 Hours

Scroll right to see more
 ConditionsComfort  
Time TempWeatherWind HumidityBarometerVisibility
7:50 pm
Fri, Apr 28
39 °FPartly sunny.9 mph56%30.30 "HgN/A
7:20 pm39 °FPassing clouds.7 mph56%30.30 "HgN/A
6:50 pm41 °FPassing clouds.5 mph57%30.27 "HgN/A
6:20 pm39 °FScattered clouds.3 mph65%30.27 "HgN/A
5:50 pm37 °FScattered clouds.8 mph75%30.27 "HgN/A
5:20 pm39 °FPartly sunny.7 mph65%30.27 "HgN/A
4:50 pm39 °FSunny.7 mph65%30.27 "Hg10 mi
4:20 pm37 °FPassing clouds.7 mph65%30.27 "HgN/A
3:50 pm37 °FPassing clouds.9 mph65%30.27 "HgN/A
3:20 pm36 °FSunny.12 mph70%30.27 "Hg10 mi
2:50 pm36 °FSunny.10 mph70%30.24 "Hg10 mi
2:20 pm36 °FPassing clouds.12 mph70%30.24 "HgN/A
1:50 pm37 °FPassing clouds.12 mph60%30.24 "HgN/A
1:20 pm37 °FPassing clouds.12 mph60%30.24 "HgN/A
12:50 pm37 °FSunny.10 mph60%30.21 "Hg10 mi
12:20 pm37 °FSunny.12 mph56%30.21 "Hg10 mi
11:50 am37 °FSunny.12 mph60%30.21 "Hg10 mi
11:20 am36 °FSunny.9 mph70%30.18 "Hg10 mi
10:50 am36 °FSunny.7 mph75%30.18 "Hg10 mi
10:20 am36 °FSunny.6 mph75%30.18 "Hg10 mi
9:50 am34 °FSunny.6 mph81%30.15 "Hg10 mi
9:20 am34 °FSunny.7 mph87%30.15 "Hg10 mi
8:50 am34 °FPassing clouds.7 mph87%30.12 "HgN/A
8:20 am34 °FSunny.5 mph87%30.09 "Hg10 mi
7:50 am34 °FSunny.No wind93%30.09 "Hg10 mi
7:20 am32 °FSunny.No wind100%30.09 "Hg10 mi
6:50 am32 °FSunny.1 mph93%30.07 "Hg10 mi
6:20 am32 °FOvercast.3 mph93%30.07 "HgN/A
5:50 am32 °FCloudy.3 mph93%30.04 "HgN/A
5:20 am32 °FPartly sunny.3 mph100%30.04 "HgN/A
4:50 am32 °FPartly cloudy.5 mph100%30.04 "HgN/A
4:20 am32 °FMostly cloudy.3 mph100%30.01 "Hg5 mi
3:50 am30 °FPartly cloudy.No wind100%30.01 "Hg3 mi
3:20 am32 °FPassing clouds.1 mph93%30.01 "Hg4 mi
2:50 am32 °FPartly cloudy.2 mph93%29.98 "HgN/A
2:20 am32 °FSprinkles. Overcast.3 mph93%29.98 "HgN/A
1:50 am32 °FPassing clouds.3 mph93%29.95 "HgN/A
1:20 am32 °FMostly cloudy.3 mph93%29.95 "HgN/A
12:50 am32 °FOvercast.3 mph93%29.95 "HgN/A
12:20 am32 °FOvercast.3 mph93%29.92 "HgN/A
11:50 pm
Thu, Apr 27
32 °FOvercast.3 mph93%29.92 "HgN/A
11:20 pm32 °FOvercast.3 mph93%29.92 "HgN/A
10:50 pm32 °FOvercast.5 mph93%29.92 "HgN/A
9:50 pm32 °FMostly cloudy.3 mph93%29.89 "HgN/A
9:20 pm32 °FBroken clouds.3 mph93%29.89 "HgN/A
Weather by CustomWeather, © 2017

See weather overviewHow to use our weather pages